Location: Del Amo
(33.8464°N, 118.2104°W)
Time: 08:40:37
(UTC+00:00)

Tiangong - Visible Passes

Search period start: 21 May 2026 00:00
Search period end: 31 May 2026 00:00
Orbit: 381 x 391 km, 41.5° (Epoch: 20 May)

Date Brightness Start Highest point End Pass type
(mag) Time Alt. Az. Time Alt. Az. Time Alt. Az.
21 May -1.5 03:59:22 10° WSW 04:02:31 58° NNW 04:05:42 10° ENE visible
21 May 0.8 05:37:12 10° WNW 05:38:39 18° NW 05:38:39 18° NW visible
22 May 0.0 04:37:27 10° WNW 04:40:13 26° NNW 04:42:33 13° NE visible
23 May -0.5 03:37:42 10° W 03:40:41 35° NNW 03:43:40 10° NE visible
23 May 0.3 05:15:37 10° NW 05:18:05 20° N 05:18:24 20° N visible
24 May 0.3 04:15:54 10° WNW 04:18:27 21° N 04:21:01 10° NE visible
24 May 1.1 05:53:15 10° NW 05:54:04 15° NW 05:54:04 15° NW visible
25 May 0.2 04:53:48 10° NW 04:56:18 21° N 04:57:22 18° NNE visible
26 May 0.4 03:54:10 10° NW 03:56:37 20° N 03:59:05 10° NE visible
26 May 0.4 05:31:08 10° NW 05:32:47 23° NNW 05:32:47 23° NNW visible
27 May -0.1 04:31:43 10° NW 04:34:24 24° N 04:35:57 17° NE visible
28 May 0.2 03:32:12 10° NW 03:34:42 21° N 03:37:13 10° ENE visible
28 May -0.7 05:08:53 10° NW 05:11:16 39° NNW 05:11:16 39° NNW visible
29 May -0.7 04:09:28 10° NW 04:12:22 32° NNE 04:14:22 16° ENE visible
29 May 1.0 05:46:12 10° WNW 05:46:35 13° WNW 05:46:35 13° WNW visible
30 May -2.2 04:46:35 10° WNW 04:49:40 82° NW 04:49:40 82° NW visible
